Вернуться в каталог

COSMOS 2071

АктивенВоенныеLEO
NORAD 20556·PAYLOAD·🇷🇺 Russia

Запущен Apr 6, 1990 с Plesetsk Cosmodrome

Loading…

Ближайшие Пролёты (ближайшие 24 часа)

TLE

СвежийSource: Space-Track

Эпоха: Sep 14, 2026, 01:31 UTC

1 20556U 90029H   26257.06329164  .00000005  00000-0  13551-3 0  9994
2 20556  73.9801 123.2542 0003274 286.2650 226.8037 12.50944082664045

Отслеживайте COSMOS 2071 в реальном времени с AllMySat

Download on the App Store